Flag for Norway Weather past 2 weeks in Hammerfest, Norway

Now
48 °F

Fog.


Feels Like: 45 °F
Forecast: 46 / 52 °F
Wind: 7 mph from Northwest

Location: Hammerfest

Current Time: Aug 27, 2014 at 11:55:52 AM

Latest Report: Aug 27, 2014 at 10:50 AM


Visibility: 0 mi

Pressure: 29.86 "Hg

Humidity: 100%

Dew point: 48 °F

Location of HammerfestLocation

Historic Weather in Hammerfest — Graph

°F

Hammerfest temperature yesterday

Maximum temperature yesterday: 55 °F (at 11:50 AM)
Minimum temperature yesterday: 45 °F (at 2:50 AM)
Average temperature yesterday: 50 °F

Past Weeks' High & Low Weather Summary

 TemperatureHumidityPressure
High66 °F (Aug 12, 2:50 PM)100% (Aug 13, 5:50 AM)29.89 "Hg (Aug 13, 5:50 AM)
Low39 °F (Aug 22, 2:50 AM)52% (Aug 25, 1:50 PM)29.18 "Hg (Aug 13, 10:50 AM)
Average48 °F85%29.64 "Hg
* Reported Aug 12 9:50 AM — Aug 27 9:50 AM, Hammerfest, Weather by CustomWeather, © 2014

Note: Actual official high and low records may vary slightly from our data, if they occured in-between our weather recording intervals... More about our weather records

Advertising

Hammerfest weather history for previous 24 hours

 ConditionsComfort  
Time TempWeatherWind HumidityBarometerVisibility
9:50 AM
Aug 27
48 °FFog.5 mph100%29.86 "Hg1 mi
8:50 AM46 °FFog.1 mph100%29.86 "Hg0 mi
7:50 AM46 °FFog.1 mph100%29.86 "Hg0 mi
6:50 AM46 °FFog.1 mph100%29.86 "Hg1 mi
5:50 AM46 °FFog.1 mph100%29.83 "Hg1 mi
4:50 AM46 °FFog.2 mph100%29.86 "Hg0 mi
3:50 AM46 °FFog.5 mph100%29.86 "Hg0 mi
2:50 AM46 °FFog.3 mph100%29.83 "Hg0 mi
1:50 AM48 °FFog.7 mph100%29.83 "Hg0 mi
12:50 AM48 °FDense fog.7 mph100%29.86 "Hg1 mi
11:50 PM
Aug 26
46 °FFog.6 mph100%29.86 "Hg4 mi
10:50 PM46 °FPassing clouds.5 mph100%29.86 "HgN/A
9:50 PM48 °FCool.9 mph100%29.86 "HgN/A
8:50 PM48 °FScattered clouds.9 mphN/A29.86 "HgN/A
7:01 PM52 °FPartly sunny.9 mphN/A29.86 "HgN/A
6:08 PM54 °FPartly sunny.9 mph82%29.86 "HgN/A
4:50 PM54 °FPartly sunny.10 mph82%29.86 "HgN/A
4:26 PM54 °FPartly sunny.12 mph82%29.86 "HgN/A
2:50 PM54 °FPartly sunny.12 mph82%29.86 "HgN/A
1:50 PM55 °FPartly sunny.10 mph77%29.86 "HgN/A
12:50 PM55 °FPartly sunny.8 mph77%29.86 "HgN/A
11:50 AM55 °FPartly sunny.9 mph77%29.86 "HgN/A
Weather by CustomWeather, © 2014

See weather overviewHow to use our weather pages